Weather History for Fort Myers, FL

Change the Weather History Date:

Friday, September 28, 2012

  Actual Average Record
Temperature  
Mean Temperature 84 °F 81 °F  
Max Temperature 92 °F 90 °F 95 °F (1980)
Min Temperature 76 °F 73 °F 67 °F (1931)
Degree Days  
Heating Degree Days 0 0  
Month to date heating degree days 0 0  
Since 1 July heating degree days 0 0  
Cooling Degree Days 19 16  
Month to date cooling degree days 491 490  
Year to date cooling degree days 3640 3214  
Growing Degree Days 33 (Base 50)    
Moisture  
Dew Point 72 °F    
Average Humidity 77    
Maximum Humidity 94    
Minimum Humidity 47    
Precipitation  
Precipitation 0.06 in 0.21 in 2.12 in (1929)
Month to date precipitation 6.04 7.91  
Year to date precipitation 41.84 48.98  
Sea Level Pressure  
Sea Level Pressure 29.99 in    
Wind  
Wind Speed 5 mph (NE)    
Max Wind Speed 22 mph    
Max Gust Speed 26 mph    
Visibility 8 miles    
Events Rain , Thunderstorm    
T = Trace of Precipitation, MM = Missing Value Source: NWS Daily Summary

Daily Weather History Graph

Daily Weather History Graph

Search for Another Location

Airport:

Trip Planner

Search our weather history database for the weather conditions in past years. The results will help you decide how hot, cold, wet, or windy it might be!

Date:

Astronomy

Sep. 28, 2012 Rise Set
Actual Time 7:18 AM EDT 7:16 PM EDT
Civil Twilight 6:55 AM EDT 7:39 PM EDT
Nautical Twilight 6:28 AM EDT 8:06 PM EDT
Astronomical Twilight 6:01 AM EDT 8:33 PM EDT
Moon 6:16 PM EDT (9/28) 5:52 AM EDT (9/28)
Length of Visible Light 12h 44m
Length of Day
11h 57m
Waxing Gibbous, 98% of the Moon is Illuminated
Sep 28
Waxing Gibbous
Sep 29
Full
Oct 8
Last Quarter
Oct 15
New
Oct 21
First Quarter

Hourly Weather History & Observations

Time (EDT) Temp. Heat Index Dew Point Humidity Pressure Visibility Wind Dir Wind Speed Gust Speed Precip Events Conditions
12:53 AM 78.1 °F - 72.0 °F 81% 30.04 in 10.0 mi Calm Calm - N/A   Clear
1:53 AM 77.0 °F - 73.0 °F 88% 30.03 in 10.0 mi Calm Calm - N/A   Clear
2:53 AM 77.0 °F - 73.9 °F 90% 30.01 in 10.0 mi Calm Calm - N/A   Clear
3:53 AM 77.0 °F - 73.9 °F 90% 30.00 in 10.0 mi NE 4.6 mph - N/A   Clear
4:39 AM 77.0 °F - 73.4 °F 89% 29.99 in 10.0 mi North 4.6 mph - N/A   Scattered Clouds
4:53 AM 77.0 °F - 73.9 °F 90% 30.00 in 9.0 mi Calm Calm - N/A   Mostly Cloudy
5:40 AM 77.0 °F - 73.4 °F 89% 29.99 in 10.0 mi NE 5.8 mph - N/A   Overcast
5:53 AM 75.9 °F - 73.9 °F 94% 29.99 in 10.0 mi NE 4.6 mph - N/A   Scattered Clouds
6:53 AM 75.9 °F - 73.0 °F 91% 30.02 in 10.0 mi NE 3.5 mph - N/A   Scattered Clouds
7:45 AM 75.2 °F - 73.4 °F 94% 30.02 in 9.0 mi NNE 6.9 mph - N/A   Mostly Cloudy
7:53 AM 75.9 °F - 73.9 °F 94% 30.03 in 2.0 mi NNE 6.9 mph - N/A   Overcast
7:56 AM 75.2 °F - 73.4 °F 94% 30.03 in 1.8 mi NNE 6.9 mph - N/A   Overcast
8:08 AM 75.2 °F - 73.4 °F 94% 30.03 in 2.5 mi NE 5.8 mph - N/A   Overcast
8:16 AM 75.2 °F - 73.4 °F 94% 30.03 in 4.0 mi NE 5.8 mph - N/A   Overcast
8:53 AM 77.0 °F - 73.9 °F 90% 30.04 in 6.0 mi ENE 6.9 mph - N/A   Mostly Cloudy
9:13 AM 78.8 °F - 73.4 °F 83% 30.04 in 10.0 mi NE 3.5 mph - N/A   Scattered Clouds
9:53 AM 81.0 °F 86.7 °F 75.0 °F 82% 30.04 in 10.0 mi ENE 6.9 mph - N/A   Clear
10:53 AM 84.0 °F 89.6 °F 72.0 °F 67% 30.05 in 10.0 mi NE 5.8 mph - N/A   Scattered Clouds
11:53 AM 86.0 °F 91.5 °F 71.1 °F 61% 30.04 in 10.0 mi NE 9.2 mph - N/A   Mostly Cloudy
12:53 PM 88.0 °F 92.9 °F 70.0 °F 55% 30.01 in 10.0 mi ENE 8.1 mph - N/A   Scattered Clouds
1:53 PM 88.0 °F 91.4 °F 68.0 °F 51% 29.98 in 10.0 mi ENE 4.6 mph - N/A   Scattered Clouds
2:53 PM 91.0 °F 96.6 °F 70.0 °F 50% 29.96 in 10.0 mi NE 8.1 mph - N/A   Mostly Cloudy
3:53 PM 89.1 °F 93.7 °F 69.1 °F 52% 29.94 in 10.0 mi NE 4.6 mph - N/A   Scattered Clouds
4:53 PM 91.9 °F 95.9 °F 68.0 °F 45% 29.92 in 10.0 mi North 8.1 mph - N/A   Partly Cloudy
5:53 PM 90.0 °F 92.8 °F 66.9 °F 46% 29.92 in 10.0 mi East 6.9 mph - N/A   Partly Cloudy
6:14 PM 87.8 °F 92.6 °F 69.8 °F 55% 29.92 in 10.0 mi ESE 9.2 mph - N/A Thunderstorm Scattered Clouds
6:40 PM 80.6 °F 82.7 °F 66.2 °F 61% 29.94 in 1.8 mi NE 5.8 mph 26.5 mph 0.03 in Rain , Thunderstorm Thunderstorms and Rain
6:45 PM 84.2 °F 87.3 °F 68.0 °F 58% 29.94 in 2.5 mi Calm Calm - 0.06 in Rain Heavy Rain
6:50 PM 82.4 °F 86.3 °F 69.8 °F 66% 29.95 in 4.0 mi Variable 3.5 mph - 0.06 in Rain , Thunderstorm Light Rain
6:53 PM 80.1 °F 83.6 °F 71.1 °F 74% 29.96 in 7.0 mi Calm Calm - 0.06 in Rain , Thunderstorm Light Rain
7:32 PM 78.8 °F - 73.4 °F 83% 29.96 in 10.0 mi Calm Calm - 0.00 in   Mostly Cloudy
7:48 PM 80.6 °F 85.4 °F 73.4 °F 79% 29.96 in 10.0 mi West 3.5 mph - 0.00 in Thunderstorm Mostly Cloudy
7:53 PM 80.1 °F 84.2 °F 73.0 °F 79% 29.97 in 10.0 mi Calm Calm - 0.00 in Thunderstorm Scattered Clouds
8:20 PM 78.8 °F - 73.4 °F 83% 29.97 in 10.0 mi East 6.9 mph - N/A   Scattered Clouds
8:53 PM 80.1 °F 84.2 °F 73.0 °F 79% 29.99 in 10.0 mi East 4.6 mph - N/A   Mostly Cloudy
9:53 PM 79.0 °F - 73.0 °F 82% 29.99 in 10.0 mi NE 3.5 mph - N/A   Clear
10:02 PM 78.8 °F - 73.4 °F 83% 29.99 in 10.0 mi NE 4.6 mph - N/A Thunderstorm Clear
10:17 PM 78.8 °F - 73.4 °F 83% 29.99 in 10.0 mi NE 4.6 mph - N/A   Clear
10:53 PM 78.1 °F - 73.0 °F 84% 29.99 in 10.0 mi ENE 5.8 mph - N/A   Clear
11:53 PM 77.0 °F - 72.0 °F 84% 29.99 in 10.0 mi Calm Calm - N/A   Clear